Regional Weather Roundup
Issued by NWS New Orleans/Baton Rouge, LA

Home | Current Version | Previous Version | Graphics & Text | Print | Product List | Glossary On
Versions: 1 2 3 4 5 6 7 8 9 10 11 12 13 14 15 16 17 18 19 20 21 22 23 24 25 26 27 28 29 30 31 32 33 34 35 36 37 38 39 40 41 42 43 44 45 46 47 48 49 50
454
ASUS44 KLIX 201505
RWRLIX
NEW ORLEANS REGIONAL WEATHER ROUNDUP
NATIONAL WEATHER SERVICE NEW ORLEANS LA
1000 AM CDT SAT SEP 20 2014

NOTE: "FAIR" INDICATES FEW OR NO CLOUDS BELOW 12,000 FEET WITH NO
      SIGNIFICANT WEATHER AND/OR OBSTRUCTIONS TO VISIBILITY.
      SKY/WX - SKY CONDITION AND SIGNIFICANT WEATHER.
      TMP - AIR TEMPERATURE.     DP    - DEWPOINT TEMPERATURE.
      RH  - RELATIVE HUMIDITY.   PRES  - PRESSURE.
      HI  - HEAT INDEX.          WCI   - WIND CHILL INDEX.

*  THESE STATIONS ARE NOT NWS OR FAA STATIONS AND ARE NOT UNDER
   NWS QUALITY CONTROL.

LAZ038-040-048-061>063-065>067-069-201600-
SOUTHEAST LOUISIANA

CITY           SKY/WX    TMP DP  RH WIND       PRES   REMARKS
N.O. AUDUBON     N/A     84  72  67 MISG        N/A
N.O. INTL ARPT MOSUNNY   82  70  66 NE16      29.99R
N.O. LAKEFRONT SUNNY     81  70  69 E17       29.99S
N.O. DOWNTOWN*   N/A     82  68  61 NE5       29.99S
SLIDELL        SUNNY     80  68  66 NE8       30.00R
BATON ROUGE    SUNNY     81  70  69 NE9       30.01R
BOOTHVILLE     MOSUNNY   83  71  67 E15G24    29.97R
BELLE CHASSE   MOSUNNY   83  72  69 E13       29.98R
BOGALUSA*        N/A     81  67  63 E6        30.05R
GALLIANO*      NOT AVBL
NEW ROADS*       N/A     81  69  68 MISG      30.01S
GONZALES*        N/A     80  73  80 NE10      29.99S
HAMMOND*       SUNNY     81  68  65 NE6       30.03R
HOUMA*         MOSUNNY   82  63  51 NE15      29.97R
PORT FOURCHON* SUNNY     84  72  65 E15G23    29.98S

$$

MSZ070-080>082-201600-
SOUTHERN MISSISSIPPI

CITY           SKY/WX    TMP DP  RH WIND       PRES   REMARKS
MCCOMB         SUNNY     78  69  73 E6        30.05R
GULFPORT       SUNNY     81  68  64 NE13      30.01R
BILOXI         SUNNY     81  68  63 E12       30.01R
PASCAGOULA     SUNNY     80  69  69 NE10      30.02R

$$

COASTAL OBSERVATIONS
LAKE AND NEARSHORE STATIONS

STATION/POSITION TIME  TEMP    WIND        PRES    WAVE
                       AIR SEA DIR/SP/G            HT/PER
                 (UTC) (F)     (DEG/KT/KT) (MB)    (FT/S)
PASCAGOULA       1500   80      70/ 14/ 17 1015.8
WAVELAND YACHT   1500   79      60/ 12/ 13 1015.5
GRAND ISLE       1500   83 81   80/ 12/ 16 1015.0
SOUTHWEST PASS   1500   84 89   90/ 22/ 25 1014.4
NEW CANAL        1500   79 80   70/ 17/ 18 1015.8
SHELL BEACH      1500   80 77   50/ 18/ 21 1015.0

OFFSHORE STATIONS

STATION/POSITION TIME  TEMP    WIND        PRES    WAVE
                       AIR SEA DIR/SP/G            HT/PER
                 (UTC) (F)     (DEG/KT/KT) (MB)    (FT/S)
64 S DAUPHIN ISL 1405   82 84   90/ 17/ 21 1014.8    6/ 7

$$




USA.gov is the U.S. government's official web portal to all federal, state and local government web resources and services.